Tracking 29892 objects as of 21-Nov-2024
HD Live streaming from Space Station
objects crossing your sky now

COSMOS 1191 DEB

Track COSMOS 1191 DEB now!


NORAD ID: 27897
Int'l Code: 1980-057K
Perigee: 1,012.9 km
Apogee: 39,605.0 km
Inclination: 63.6 °
Period: 722.8 minutes
Semi major axis: 26679 km
RCS: 0.5012 m2 (medium)
Launch date: July 2, 1980
Source: Commonwealth of Independent States (former USSR) (CIS)
Launch site: PLESETSK MISSILE AND SPACE COMPLEX (PKMTR)

Note: This is SATELLITE DEBRIS
Your satellite tracking list
Your tracking list is empty




NASA's NSSDC Master Catalog

Two Line Element Set (TLE):
1 27897U 80057K   24325.50579613  .00000302  00000-0  00000+0 0  9999
2 27897  63.6380  73.6512 7232424  43.1964 354.6305  1.99216729159519
Source of the keplerian elements: AFSPC